Regional Weather Roundup
Issued by NWS

Home | Current Version | Previous Version | Text Only | Print | Product List | Glossary Off
Versions: 1 2 3 4 5 6 7 8 9 10 11 12 13 14 15 16 17 18 19 20 21 22 23 24 25 26 27 28 29 30 31 32 33 34 35 36 37 38 39 40 41 42 43 44 45 46 47 48 49 50

000
ASUS45 KPSR 171510
RWRAZ

ARIZONA REGIONAL HOURLY WEATHER ROUNDUP
NATIONAL WEATHER SERVICE PHOENIX AZ
800 AM MST THU APR 17 2014

NOTE: FAIR INDICATES FEW OR NO CLOUDS BELOW 12,000 FEET WITH NO
SIGNIFICANT WEATHER AND/OR OBSTRUCTIONS TO VISIBILITY.

AZZ001>003-036-171600-
NORTHWEST ARIZONA

CITY           SKY/WX    TMP DP  RH WIND       PRES   REMARKS
BULLHEAD CITY  SUNNY     68  27  21 CALM      29.86R
KINGMAN        SUNNY     68  17  14 SE13      29.96R
$$

AZZ004>008-015-016-018-171600-
NORTH CENTRAL ARIZONA

CITY           SKY/WX    TMP DP  RH WIND       PRES   REMARKS
GRAND CANYON   SUNNY     53  26  35 SE6       30.14R
WILLIAMS       SUNNY     54  23  30 SE10      30.20R
PRESCOTT       SUNNY     59  20  22 CALM      30.07R
FLAGSTAFF      SUNNY     50  24  36 CALM      30.15R
PAYSON         SUNNY     61  19  20 VRB3      30.10R
PAGE           SUNNY     56  24  29 VRB5      30.08R
$$

AZZ009>014-017-171600-
NORTHEAST ARIZONA

CITY           SKY/WX    TMP DP  RH WIND       PRES   REMARKS
WINSLOW        SUNNY     51  23  33 SE8       30.11R
SAINT JOHNS    SUNNY     51  16  24 CALM      30.12R
WINDOW ROCK    SUNNY     44  21  40 CALM      30.17R
SHOW LOW       SUNNY     55  23  28 CALM      30.15S
$$

AZZ023-171600-
GREATER PHOENIX AREA

CITY           SKY/WX    TMP DP  RH WIND       PRES   REMARKS
PHOENIX        SUNNY     71  27  19 SE6       29.90R
BUCKEYE          N/A     72  23  16 E3        29.91R
GLENDALE       SUNNY     70  32  24 NW3       29.93R
LUKE AFB       NOT AVBL
DEER VALLEY    SUNNY     70  22  16 NE5       29.92R
SCOTTSDALE     SUNNY     70  34  26 CALM      29.94R
MESA-FALCON    SUNNY     70  23  17 N7        29.92R
MESA-GATEWAY   SUNNY     68  28  22 SE6       29.93R
CHANDLER       SUNNY     68  28  22 CALM      29.92R
$$

AZZ027-028-171600-
SOUTHWEST MARICOPA COUNTY AND PINAL COUNTY

CITY           SKY/WX    TMP DP  RH WIND       PRES   REMARKS
CASA GRANDE    SUNNY     70  25  18 CALM      29.93R
GILA BEND      SUNNY     72  18  13 N3        29.90R
$$

AZZ503-504-507>509-171600-
SOUTHEAST ARIZONA

CITY           SKY/WX    TMP DP  RH WIND       PRES   REMARKS
TUCSON         SUNNY     69  22  16 VRB7      29.99R
DAVIS-MONTHAN  SUNNY     70  26  19 SE10      29.98R
RYAN FIELD       N/A     66  23  19 NE3       29.99
NOGALES        SUNNY     62  25  24 CALM      30.04R
SIERRA VISTA   SUNNY     63  21  20 N3        30.07R
DOUGLAS        SUNNY     61  24  24 SE6       30.07R
SAFFORD        SUNNY     61   8  12 CALM      30.00R
$$

AZZ020-021-025-026-031-171600-
SOUTHWEST ARIZONA

CITY           SKY/WX    TMP DP  RH WIND       PRES   REMARKS
YUMA           MOSUNNY   75  42  30 SE13      29.85R
$$

CAZ031-033-041-043-047-048-061-171600-
SOUTHERN CALIFORNIA

CITY           SKY/WX    TMP DP  RH WIND       PRES   REMARKS
DOWNTOWN L.A.  CLOUDY    61  52  72 VRB3      29.88R
L.A. AIRPORT   CLOUDY    60  52  74 E8        29.89R
SAN DIEGO      CLOUDY    61  52  72 CALM      29.92R
BURBANK        CLOUDY    57  52  83 CALM      29.87F HAZE
ONTARIO        CLOUDY    57  53  86 CALM      29.89R FOG
RIVERSIDE      CLOUDY    56  52  86 S3        29.90R FOG
PALM SPRINGS   SUNNY     71  44  37 NE5       29.88R
EL CENTRO NAS  MOSUNNY   64  50  60 CALM      29.84R
IMPERIAL       SUNNY     64  52  64 E5        29.83R
BLYTHE         SUNNY     70  30  22 CALM      29.86R
NEEDLES        SUNNY     76  22  13 NE3       29.86R
$$

NVZ020-UTZ003-171600-
SOUTHERN NEVADA-UTAH

CITY           SKY/WX    TMP DP  RH WIND       PRES   REMARKS
LAS VEGAS      SUNNY     70  25  18 CALM      29.88R
SALT LAKE CITY MOSUNNY   50  24  36 S15       30.06S
$$

NMZ009-TXZ055-171600-
NEW MEXICO-WEST TEXAS

CITY           SKY/WX    TMP DP  RH WIND       PRES   REMARKS
ALBUQUERQUE    MOSUNNY   52  28  39 E21       30.14R
EL PASO        SUNNY     63  23  21 N10       30.04R
$$


........................KEY........................
SKY/WX - SKY CONDITION/WEATHER
TMP    - TEMPERATURE IN FAHRENHEIT
DP     - DEW POINT IN FAHRENHEIT
RH     - RELATIVE HUMIDITY IN PERCENT
WIND   - DIRECTION AND SPEED IN MILES PER HOUR (MPH)
VRB    - VARIABLE WIND DIRECTION
PRES   - MEAN SEA LEVEL PRESSURE IN INCHES OF MERCURY
         F - FALLING PRESSURE   R - RISING PRESSURE
         S - STEADY PRESSURE
VSB    - VISIBILITY IN MILES
HX     - HEAT INDEX IN FAHRENHEIT
WCI    - WIND CHILL INDEX IN FAHRENHEIT
TC     - TEMPERATURE IN CELSIUS WHICH IS ALSO KNOWN AS
         TEMPERATURE IN CENTIGRADE
AFB    - AIR FORCE BASE
         LUKE AFB IS LUKE AIR FORCE BASE
         DAVIS-MONTHAN IS DAVIS-MONTHAN AIR FORCE BASE
NAS    - NAVAL AIR STATION
         EL CENTRO NAS IS EL CENTRO NAVAL AIR STATION
N/A    - NOT AVAILABLE



USA.gov is the U.S. government's official web portal to all federal, state and local government web resources and services.